Provo, UT

12:12 PM MDT on August 28, 2016 (GMT -0600)
Provo Municipal

Weather History for KPVU - February, 2012

Change the Weather History Date:

Saturday, February 18, 2012

  Actual Average Record
Temperature  
Mean Temperature 34 °F -  
Max Temperature 44 °F 40 °F 61 °F (1983)
Min Temperature 23 °F 25 °F 5 °F (2008)
Degree Days  
Heating Degree Days 32    
Moisture  
Dew Point 25 °F    
Average Humidity 77    
Maximum Humidity 93    
Minimum Humidity 43    
Precipitation  
Precipitation 0.00 in - - ()
Sea Level Pressure  
Sea Level Pressure 30.07 in    
Wind  
Wind Speed 3 mph (SE)    
Max Wind Speed 10 mph    
Max Gust Speed -    
Visibility 11 miles    
Events      
Averages and records for this station are not official NWS values.
T = Trace of Precipitation, MM = Missing Value Source: NWS Daily Summary

Daily Weather History Graph

Daily Weather History Graph

Search for Another Location

Airport or City:

Trip Planner

Search our weather history database for the weather conditions in past years. The results will help you decide how hot, cold, wet, or windy it might be!

Date:

Astronomy

Feb. 18, 2012 Rise Set
Actual Time 7:16 AM MST 6:05 PM MST
Civil Twilight 6:49 AM MST 6:33 PM MST
Nautical Twilight 6:17 AM MST 7:05 PM MST
Astronomical Twilight 5:45 AM MST 7:36 PM MST
Moon 4:59 AM MST (2/18) 3:06 PM MST (2/18)
Length of Visible Light 11h 44m
Length of Day
10h 48m
Waning Crescent, 11% of the Moon is Illuminated
Feb 18
Waning Crescent
Feb 21
New
Feb 29
First Quarter
Mar 8
Full
Mar 14
Last Quarter

Hourly Weather History & Observations

Time (MST) Temp. Windchill Dew Point Humidity Pressure Visibility Wind Dir Wind Speed Gust Speed Precip Events Conditions
12:15 AM 28.4 °F - 24.8 °F 86% 30.21 in 10.0 mi Calm Calm - N/A   Clear
12:35 AM 26.6 °F - 24.8 °F 93% 30.21 in 10.0 mi Calm Calm - N/A   Clear
12:55 AM 26.6 °F - 24.8 °F 93% 30.22 in 10.0 mi Calm Calm - N/A   Clear
1:15 AM 26.6 °F 19.1 °F 21.2 °F 80% 30.21 in 10.0 mi South 6.9 mph - N/A   Clear
1:35 AM 26.6 °F 20.0 °F 23.0 °F 86% 30.21 in 10.0 mi SSE 5.8 mph - N/A   Clear
1:55 AM 26.6 °F 20.0 °F 23.0 °F 86% 30.20 in 10.0 mi SE 5.8 mph - N/A   Clear
2:15 AM 26.6 °F 21.2 °F 24.8 °F 93% 30.20 in 10.0 mi ESE 4.6 mph - N/A   Clear
2:35 AM 26.6 °F 22.6 °F 23.0 °F 86% 30.19 in 10.0 mi East 3.5 mph - N/A   Clear
2:55 AM 24.8 °F 20.5 °F 21.2 °F 86% 30.19 in 10.0 mi East 3.5 mph - N/A   Clear
3:15 AM 26.6 °F - 21.2 °F 80% 30.17 in 10.0 mi Calm Calm - N/A   Clear
3:35 AM 24.8 °F - 21.2 °F 86% 30.16 in 10.0 mi Calm Calm - N/A   Clear
3:55 AM 23.0 °F - 19.4 °F 86% 30.14 in 10.0 mi Calm Calm - N/A   Clear
4:15 AM 23.0 °F - 19.4 °F 86% 30.15 in 10.0 mi Calm Calm - N/A   Clear
4:35 AM 24.8 °F 19.1 °F 19.4 °F 80% 30.16 in 10.0 mi South 4.6 mph - N/A   Clear
4:55 AM 24.8 °F 17.9 °F 17.6 °F 74% 30.16 in 10.0 mi South 5.8 mph - N/A   Clear
5:15 AM 24.8 °F 16.1 °F 21.2 °F 86% 30.15 in 10.0 mi SE 8.1 mph - N/A   Clear
5:35 AM 26.6 °F 19.1 °F 19.4 °F 74% 30.16 in 10.0 mi ESE 6.9 mph - N/A   Clear
5:55 AM 26.6 °F 21.2 °F 23.0 °F 86% 30.15 in 10.0 mi ESE 4.6 mph - N/A   Clear
6:15 AM 24.8 °F 20.5 °F 21.2 °F 86% 30.14 in 10.0 mi ESE 3.5 mph - N/A   Clear
6:35 AM 24.8 °F 20.5 °F 21.2 °F 86% 30.14 in 10.0 mi East 3.5 mph - N/A   Clear
6:52 AM 23.0 °F - 21.2 °F 93% 30.14 in 10.0 mi Calm Calm - N/A   Partly Cloudy
8:47 AM 28.4 °F - 24.8 °F 86% 30.15 in 10.0 mi Calm Calm - N/A   Partly Cloudy
9:47 AM 33.8 °F - 24.8 °F 70% 30.13 in 10.0 mi Calm Calm - N/A   Partly Cloudy
11:47 AM 39.2 °F 35.9 °F 24.8 °F 56% 30.09 in 10.0 mi Variable 4.6 mph - N/A   Mostly Cloudy
12:48 PM 39.2 °F 35.0 °F 26.6 °F 61% 30.05 in 10.0 mi Variable 5.8 mph - N/A   Mostly Cloudy
2:47 PM 42.8 °F 41.1 °F 24.8 °F 49% 29.99 in 15.0 mi SW 3.5 mph - N/A   Mostly Cloudy
3:57 PM 44.6 °F 42.2 °F 23.0 °F 43% 29.96 in 15.0 mi East 4.6 mph - N/A   Mostly Cloudy
4:47 PM 44.6 °F - 26.6 °F 49% 29.95 in 15.0 mi Calm Calm - N/A   Mostly Cloudy
6:54 PM 37.4 °F - 30.2 °F 75% 29.93 in 15.0 mi Calm Calm - N/A   Overcast
7:50 PM 37.4 °F - 30.2 °F 75% 29.91 in 15.0 mi Calm Calm - N/A   Overcast
8:49 PM 39.2 °F - 26.6 °F 61% 29.89 in 15.0 mi Calm Calm - N/A   Overcast
9:15 PM 37.4 °F - 28.4 °F 70% 29.90 in 10.0 mi Calm Calm - N/A   Clear
9:35 PM 37.4 °F - 28.4 °F 70% 29.90 in 10.0 mi Calm Calm - N/A   Scattered Clouds
9:55 PM 39.2 °F 34.2 °F 28.4 °F 65% 29.90 in 10.0 mi WNW 6.9 mph - N/A   Mostly Cloudy
10:15 PM 37.4 °F 32.8 °F 28.4 °F 70% 29.91 in 10.0 mi WNW 5.8 mph - N/A   Mostly Cloudy
10:35 PM 39.2 °F 32.5 °F 30.2 °F 70% 29.92 in 10.0 mi South 10.4 mph - N/A   Mostly Cloudy
10:55 PM 39.2 °F - 30.2 °F 70% 29.91 in 10.0 mi Calm Calm - N/A   Overcast
11:15 PM 39.2 °F - 28.4 °F 65% 29.91 in 10.0 mi Calm Calm - N/A   Overcast
11:35 PM 37.4 °F 32.8 °F 32.0 °F 81% 29.91 in 8.0 mi SSW 5.8 mph - N/A   Overcast
11:55 PM 35.6 °F 30.7 °F 33.8 °F 93% 29.91 in 10.0 mi ESE 5.8 mph - N/A   Overcast